ASTRA 1KR

Last updated on Jan. 20, 2021, 6:22 a.m. UTC

1 29055U 06012A   21019.76610769  .00000125  00000-0  00000-0 0  9993
2 29055   0.0446 249.8532 0004442  15.8103 148.6442  1.00271695 25920
UTC
Height (km)
Latitude
Longitude
Inclination
Orbital Period
UTC large
Height (km)
Speed (km/s)
/
Latitude / Longitude
Inclination (degrees)
Orbital Period (minutes)
Azimuth
Elevation
Range (km)
Doppler Factor
iOS Compass Heading
iOS Angle

Next 30 passes for location: Hong Kong

Rise time Rise Azimuth (degrees) Set time Set Azimuth (degrees) Duration Max altitude (degrees)

No matching passes for this satellites